User: anonymous   Login
Location: Fours
(44.3167°N, 6.7000°E)
Time: 12:44:13
(UTC+00:00)
Language:

Cosmos 389 Rocket - Orbit

View from above orbital plane
View from above orbital plane
View from above satellite
View from above satellite

Ground track
Ground track

The orbit data is extracted from the following two-line orbital elements,

1  4814U 70113B   22022.07870823  .00004682  00000-0  12371-3 0  9999
2  4814  81.1413 174.7935 0023359  59.3814 300.9725 15.37907220792195
Epoch (UTC): 22 January 2022 01:53:20
Eccentricity: 0.0023359
inclination: 81.1413°
perigee height: 436 km
apogee height: 468 km
right ascension of ascending node: 174.7935°
argument of perigee: 59.3814°
revolutions per day: 15.37907220
mean anomaly at epoch: 300.9725°
orbit number at epoch: 79219

The dashed part of the orbit path shows where the satellite is in the earth's shadow,  

DLR